Flag for U.S.A. Weather past 2 weeks in Santa Clarita, California, U.S.A.

Now
68 °F

Clear.


Feels Like: 68 °F
Forecast: 66 / 94 °F
Wind: No wind

Location: Van Nuys Airport

Current Time: Aug 4, 2015 at 7:36:21 AM

Latest Report: Aug 4, 2015 at 6:51 AM


Visibility: 10 mi

Pressure: 29.88 "Hg

Humidity: 68%

Dew point: 57 °F

Location of Santa ClaritaLocation

Historic Weather in Santa Clarita — Graph

°F

Santa Clarita temperature yesterday

Maximum temperature yesterday: 90 °F (at 3:51 PM)
Minimum temperature yesterday: 66 °F (at 3:51 AM)
Average temperature yesterday: 77 °F

Past Weeks' High & Low Weather Summary

 TemperatureHumidityPressure
High96 °F (Jul 31, 3:51 PM)90% (Jul 28, 5:58 AM)30.06 "Hg (Jul 28, 5:58 AM)
Low64 °F (Jul 27, 2:51 AM)20% (Jul 25, 4:51 PM)29.78 "Hg (Aug 2, 6:51 PM)
Average77 °F61%29.91 "Hg
* Reported Jul 20 5:51 AM — Aug 4 5:51 AM, Santa Clarita, Weather by CustomWeather, © 2015

Note: Actual official high and low records may vary slightly from our data, if they occured in-between our weather recording intervals... More about our weather records

Advertising

Santa Clarita weather history for previous 24 hours

 ConditionsComfort  
Time TempWeatherWind HumidityBarometerVisibility
5:51 AM
Tue, Aug 4
68 °FClear.No wind68%29.87 "Hg10 mi
4:51 AM69 °FClear.No wind68%29.86 "Hg10 mi
3:51 AM70 °FClear.No wind68%29.86 "Hg10 mi
2:51 AM70 °FClear.No wind68%29.85 "Hg10 mi
1:51 AM71 °FClear.5 mph66%29.85 "Hg10 mi
12:51 AM73 °FClear.No wind62%29.86 "Hg10 mi
11:51 PM
Mon, Aug 3
73 °FClear.5 mph62%29.86 "Hg10 mi
10:51 PM75 °FClear.No wind50%29.85 "Hg10 mi
9:51 PM76 °FClear.No wind48%29.86 "Hg10 mi
8:51 PM78 °FSunny.6 mph46%29.84 "Hg10 mi
7:51 PM81 °FSunny.3 mph44%29.83 "Hg10 mi
6:51 PM82 °FScattered clouds.6 mph48%29.82 "Hg10 mi
5:51 PM86 °FSunny.10 mph42%29.82 "Hg10 mi
4:51 PM88 °FSunny.13 mph40%29.82 "Hg10 mi
3:51 PM90 °FSunny.13 mph38%29.82 "Hg10 mi
2:51 PM89 °FSunny.10 mph39%29.84 "Hg10 mi
1:51 PM88 °FSunny.10 mph42%29.85 "Hg10 mi
12:51 PM88 °FScattered clouds.6 mph38%29.86 "Hg10 mi
11:51 AM85 °FScattered clouds.3 mph43%29.87 "Hg10 mi
10:51 AM81 °FSunny.No wind49%29.88 "Hg10 mi
9:51 AM77 °FSunny.5 mph58%29.89 "Hg10 mi
8:51 AM73 °FSunny.No wind66%29.88 "Hg10 mi
7:51 AM70 °FSunny.No wind76%29.88 "Hg10 mi
Weather by CustomWeather, © 2015

See weather overviewHow to use our weather pages